Home   Weather   Butte   Past weeks

Flag for USA Past Weather in Butte, Montana, USA — Yesterday and Last 2 Weeks

Now
21 °F

Overcast.


Feels Like: 16 °F
Forecast: 6 / 18 °F
Wind: 3 mph from Southwest

Location: Mooney Airport

Current Time: Jan 20, 2017 at 5:07:22 am

Latest Report: Jan 20, 2017 at 3:53 am


Visibility: 10 mi

Pressure: 29.59 "Hg (23.85 "Hg at 1685m altitude)

Humidity: 92%

Dew Point: 19 °F

Location of ButteLocation

Past Weather in Butte — Graph

°F

Butte Temperature Yesterday

Maximum temperature yesterday: 37 °F (at 1:53 pm)
Minimum temperature yesterday: 19 °F (at 3:53 am)
Average temperature yesterday: 27 °F

High & Low Weather Summary for the Past Weeks

 TemperatureHumidityPressure
High41 °F (Jan 18, 1:53 pm)96% (Jan 8, 8:13 pm)30.82 "Hg (Jan 8, 8:13 pm)
Low-31 °F (Jan 5, 6:53 am)39% (Jan 9, 6:53 pm)29.42 "Hg (Jan 10, 8:33 pm)
Average8 °F76%30.12 "Hg
* Reported Jan 5 3:53 am — Jan 20 3:53 am, Butte, Weather by CustomWeather, © 2017

Note: Actual official high and low records may vary slightly from our data, if they occured in-between our weather recording intervals... More about our weather records

Advertising

Butte Weather History for the Previous 24 Hours

Scroll right to see more
 ConditionsComfort  
Time TempWeatherWind HumidityBarometerVisibility
3:53 am
Fri, Jan 20
21 °FOvercast.3 mph92%29.59 "Hg10 mi
2:53 am22 °FOvercast.No wind89%29.59 "Hg8 mi
2:36 am22 °FLight snow. Ice fog.3 mph89%29.52 "Hg4 mi
2:21 am22 °FLight snow. Ice fog.5 mph85%29.52 "Hg2 mi
1:53 am20 °FLight snow. Ice fog.No wind89%29.59 "Hg6 mi
12:53 am18 °FOvercast.3 mph88%29.62 "Hg10 mi
11:53 pm
Thu, Jan 19
20 °FPartly cloudy.7 mph85%29.64 "Hg10 mi
10:53 pm25 °FPassing clouds.3 mph85%29.63 "Hg10 mi
9:53 pm25 °FPartly cloudy.3 mph81%29.65 "Hg10 mi
8:53 pm24 °FPassing clouds.5 mph81%29.65 "Hg10 mi
7:53 pm31 °FPassing clouds.7 mph73%29.64 "Hg10 mi
6:53 pm31 °FPartly cloudy.5 mph73%29.62 "Hg10 mi
5:53 pm32 °FPassing clouds.No wind69%29.63 "Hg10 mi
4:53 pm33 °FPassing clouds.3 mph70%29.61 "Hg10 mi
3:53 pm35 °FPassing clouds.10 mph67%29.61 "Hg10 mi
2:53 pm35 °FPartly sunny.12 mph67%29.58 "Hg10 mi
1:53 pm37 °FMostly cloudy.3 mph62%29.59 "Hg10 mi
12:53 pm35 °FMore clouds than sun.No wind64%29.62 "Hg10 mi
11:53 am30 °FOvercast.3 mph79%29.64 "Hg10 mi
10:53 am29 °FOvercast.No wind72%29.69 "Hg10 mi
9:53 am25 °FPartly sunny.No wind78%29.70 "Hg8 mi
8:53 am25 °FMostly cloudy.No wind78%29.68 "Hg10 mi
7:53 am21 °FPassing clouds.No wind81%29.67 "Hg10 mi
6:53 am22 °FPassing clouds.6 mph82%29.67 "Hg10 mi
5:53 am20 °FOvercast.No wind82%29.68 "Hg10 mi
Weather by CustomWeather, © 2017

See weather overviewHow to use our weather pages